Location: Plzen
(49.7500°N, 13.3670°E)
Time: 18:33:52
(UTC+02:00)

ISS - Pass Details

Date: 22 May 2021
Orbit: 417 x 422 km, 51.6° (Epoch: 16 June)

Event Time Altitude Azimuth Distance (km) Brightness Sun altitude
Rises 22:57:14 0° 282° (WNW) 2,367 0.7 -14.3°
Reaches altitude 10° 22:59:20 10° 285° (WNW) 1,503 -0.3 -14.5°
Maximum altitude 23:02:42 68° 9° (N) 456 -3.5 -14.8°
Enters shadow 23:05:24 15° 92° (E) 1,237 -1.7 -15.0°
